sat.trackr.live / text

‹ back to catalog

STARLINK-30361

NORAD 57743 · 2023-131M

PAYLOAD ACTIVE UNKNOWN

§ Identity

Operator
Country
US
Launch date
2023-09-01
Launch site
AFETR
Launch vehicle
Mass (kg)
RCS (m²)

Purposes: comms

External: N2YO · Heavens-Above · Gunter

§ Orbital elements

Epoch: 2026-09-19T09:33:58.067136Z

Period
94.27 min
Inclination
43.0030°
Eccentricity
0.0000950
Mean motion
15.27573189 rev/d
Perigee alt
482.4 km
Apogee alt
483.7 km
Semi-major
6,861.2 km
B*
3.5234e-5
RAAN
158.3221°
Arg perigee
297.6510°
Mean anomaly
62.4245°
Rev number
16,953

§ Raw data

STARLINK-303611 57743U 23131M   26262.39858874  .00000707  00000+0  35234-4 0  99902 57743  43.0030 158.3221 0000950 297.6510  62.4245 15.27573189169539

JSON: /api/v1/satellites/57743 · /tle

For live sub-satellite position, see the globe view (requires WebGL).

§ Visibility from observer

Set your observer location to see the next 7 days of passes ≥ 10°. The values pass through the URL so the page stays shareable.

No JS? Fill the form by hand. The geolocation button needs JavaScript.